FW4030 Weather Reports


time (UTC)temp
C
wind
direction
speed
KPH
gust
KPH
rain 1hr
cm
rain 24hr
cm
rain mn
cm
humidity
%
barometer
mb
20191018034921 11 174 6.4 0.0 0.00 0.03 0.00 99 0.9
20191018033921 11 179 4.8 0.0 0.00 0.03 0.00 99 0.9
20191018032924 11 171 4.8 0.0 0.00 0.03 0.00 99 0.9
20191018031922 11 180 0.0 0.0 0.00 0.03 0.00 99 0.9
20191018030920 11 207 3.2 0.0 0.00 0.03 0.00 99 0.9
20191018025923 12 195 6.4 0.0 0.00 0.03 0.00 98 0.9
20191018025021 11 187 4.8 0.0 0.00 0.03 0.00 98 0.9
20191018024021 11 190 4.8 0.0 0.00 0.03 0.00 98 0.9
20191018023022 11 186 4.8 0.0 0.00 0.03 0.00 98 0.9
20191018022119 11 187 3.2 0.0 0.00 0.03 0.00 98 0.9
20191018021123 11 164 8.0 0.0 0.00 0.03 0.00 98 0.9
20191018020124 11 188 4.8 0.0 0.00 0.03 0.00 99 0.9
20191018015221 11 185 3.2 0.0 0.00 0.03 0.00 99 0.9
20191018014221 11 177 6.4 0.0 0.00 0.03 0.00 100 0.9
20191018013319 11 177 3.2 0.0 0.00 0.03 0.00 99 0.9
20191018012321 11 184 4.8 0.0 0.00 0.03 0.00 100 0.9
20191018011421 11 159 1.6 0.0 0.00 0.03 0.00 99 0.9
20191018010520 11 186 3.2 0.0 0.00 0.03 0.00 100 0.9
20191018005620 11 175 4.8 0.0 0.00 0.03 0.00 100 0.9
20191018004623 11 175 3.2 0.0 0.00 0.03 0.00 100 0.9
20191018003621 11 174 3.2 0.0 0.00 0.03 0.00 100 0.9
20191018002622 11 157 1.6 0.0 0.00 0.03 0.00 100 0.9
20191018001721 11 177 4.8 0.0 0.00 0.03 0.00 100 0.9
20191018000725 11 175 6.4 0.0 0.00 0.03 0.00 100 0.9
20191017235724 11 184 1.6 0.0 0.00 0.03 0.00 100 0.9
20191017234820 11 189 3.2 0.0 0.00 0.03 0.00 100 0.9
20191017233822 11 176 4.8 0.0 0.00 0.03 0.00 100 0.9
20191017232920 11 158 6.4 0.0 0.00 0.03 0.00 100 0.9
20191017231921 11 179 3.2 0.0 0.00 0.03 0.00 100 0.9
20191017230922 11 174 4.8 0.0 0.00 0.03 0.00 100 0.9
20191017225922 11 191 1.6 0.0 0.00 0.03 0.00 100 0.9
20191017224920 11 172 3.2 0.0 0.00 0.03 0.00 100 0.9
20191017223924 11 181 1.6 0.0 0.00 0.03 0.00 100 0.9
20191017222921 11 171 1.6 0.0 0.00 0.03 0.00 100 0.9
20191017221928 11 161 1.6 0.0 0.00 0.03 0.00 100 0.9
20191017221023 12 164 1.6 0.0 0.00 0.03 0.00 100 0.9
20191017220032 12 186 1.6 0.0 0.00 0.03 0.03 100 0.9
20191017215130 12 204 1.6 0.0 0.00 0.03 0.03 100 0.9
20191017214133 12 201 0.0 0.0 0.00 0.03 0.03 100 0.9
20191017213133 12 157 0.0 0.0 0.00 0.03 0.03 100 0.9
20191017212231 11 159 1.6 0.0 0.00 0.03 0.03 100 0.9
20191017211235 11 180 0.0 0.0 0.00 0.03 0.03 99 0.9
20191017210232 12 180 0.0 0.0 0.00 0.03 0.03 99 0.9
20191017205236 12 214 0.0 0.0 0.00 0.03 0.03 99 0.9
20191017204334 12 222 1.6 0.0 0.00 0.03 0.03 99 0.9
20191017203433 12 195 1.6 0.0 0.00 0.03 0.03 99 0.9
20191017202433 12 204 3.2 0.0 0.00 0.03 0.03 99 0.9
20191017201531 12 225 0.0 0.0 0.00 0.03 0.03 99 0.9
20191017200532 12 203 4.8 0.0 0.00 0.03 0.03 99 0.9
20191017195536 12 198 3.2 0.0 0.00 0.03 0.03 99 0.9
20191017194632 12 214 3.2 0.0 0.00 0.03 0.03 99 0.9
20191017193633 12 179 0.0 0.0 0.00 0.03 0.03 99 0.9
20191017192632 12 181 1.6 0.0 0.00 0.03 0.03 99 0.9
20191017191634 12 198 1.6 0.0 0.00 0.03 0.03 99 0.9
20191017190631 12 186 1.6 0.0 0.00 0.03 0.03 99 0.9
20191017185732 12 191 1.6 0.0 0.00 0.03 0.03 99 0.9
20191017184733 12 204 3.2 0.0 0.00 0.03 0.03 99 0.9
20191017183832 12 170 1.6 0.0 0.00 0.03 0.03 98 0.9
20191017182931 12 175 1.6 0.0 0.00 0.03 0.03 98 0.9
20191017181932 12 212 1.6 0.0 0.00 0.03 0.03 98 0.9
20191017181030 12 213 1.6 0.0 0.00 0.03 0.03 98 0.9
20191017180130 12 240 1.6 0.0 0.00 0.03 0.03 98 0.9
20191017175132 12 272 4.8 0.0 0.00 0.03 0.03 98 0.9
20191017174232 12 202 3.2 0.0 0.00 0.03 0.03 98 0.9
20191017173235 12 315 1.6 0.0 0.00 0.03 0.03 97 0.9
20191017172232 12 279 1.6 0.0 0.00 0.03 0.03 97 0.9
20191017171230 12 270 0.0 0.0 0.00 0.03 0.03 97 0.9
20191017170331 12 270 3.2 0.0 0.00 0.03 0.03 97 0.9
20191017165332 12 299 6.4 0.0 0.00 0.03 0.03 97 0.9
20191017164337 13 94 1.6 0.0 0.00 0.03 0.03 97 0.9
20191017163431 12 225 1.6 0.0 0.00 0.03 0.03 96 0.9
20191017162530 13 202 1.6 0.0 0.00 0.03 0.03 97 0.9
20191017161534 13 202 0.0 0.0 0.00 0.03 0.03 97 0.9
20191017160530 13 202 0.0 0.0 0.00 0.03 0.03 97 0.9
20191017155532 13 202 0.0 0.0 0.00 0.03 0.03 96 0.9
20191017154531 13 201 0.0 0.0 0.00 0.03 0.03 96 0.9
20191017153632 13 180 1.6 0.0 0.00 0.03 0.03 96 0.9
20191017152632 13 160 1.6 0.0 0.00 0.03 0.03 95 0.9
20191017151635 13 158 3.2 0.0 0.00 0.03 0.03 95 0.9
20191017150730 13 163 6.4 0.0 0.00 0.03 0.03 95 0.9
20191017145830 14 188 4.8 0.0 0.00 0.03 0.03 94 0.9
20191017144831 14 185 3.2 0.0 0.00 0.03 0.03 94 0.9
20191017143932 13 198 0.0 0.0 0.00 0.03 0.03 94 0.9
20191017142932 13 176 1.6 0.0 0.00 0.03 0.03 93 0.9
20191017141933 14 174 1.6 0.0 0.00 0.03 0.03 92 0.9
20191017140933 14 192 3.2 0.0 0.00 0.03 0.03 92 0.9
20191017140031 14 205 4.8 0.0 0.00 0.03 0.03 92 0.9
20191017135032 14 183 1.6 0.0 0.00 0.03 0.03 93 0.9
20191017134030 14 186 6.4 0.0 0.00 0.03 0.03 92 0.9
20191017133035 15 171 3.2 0.0 0.00 0.03 0.03 92 0.9
20191017132131 15 195 4.8 0.0 0.00 0.03 0.03 90 0.9
20191017131131 16 196 3.2 0.0 0.00 0.03 0.03 91 0.9
20191017130135 15 174 6.4 0.0 0.00 0.03 0.03 93 0.9
20191017125231 15 207 6.4 0.0 0.00 0.03 0.03 94 0.9
20191017124234 15 189 4.8 0.0 0.00 0.03 0.03 95 0.9
20191017123232 15 215 4.8 0.0 0.00 0.03 0.03 96 0.9
20191017122233 15 179 1.6 0.0 0.00 0.03 0.03 97 0.9
20191017121331 15 211 6.4 0.0 0.00 0.03 0.03 97 0.9
20191017120337 15 222 8.0 0.0 0.00 0.03 0.03 97 0.9
20191017115430 15 194 6.4 0.0 0.00 0.03 0.03 96 0.9
20191017114530 15 212 8.0 0.0 0.00 0.03 0.03 98 0.9
20191017113532 15 209 8.0 0.0 0.00 0.03 0.03 98 0.9
20191017112534 15 198 6.4 0.0 0.00 0.03 0.03 98 0.9
20191017111633 15 237 6.4 0.0 0.00 0.03 0.03 98 0.9
20191017110633 14 216 8.0 0.0 0.00 0.03 0.03 99 0.9
20191017105730 14 191 0.0 0.0 0.00 0.03 0.03 99 0.9
20191017104830 14 218 3.2 0.0 0.00 0.03 0.03 100 0.9
20191017103835 13 208 3.2 0.0 0.03 0.03 0.03 100 0.9
20191017102931 13 201 3.2 0.0 0.03 0.03 0.03 99 0.9
20191017101930 13 304 0.0 0.0 0.03 0.03 0.03 100 0.9
20191017100932 13 224 4.8 0.0 0.03 0.03 0.03 100 0.9
20191017095931 13 219 6.4 0.0 0.03 0.03 0.03 100 0.9
20191017095030 13 230 4.8 0.0 0.03 0.03 0.03 99 0.9
20191017094034 13 235 6.4 0.0 0.00 0.00 0.00 99 0.9
20191017093134 13 254 3.2 0.0 0.00 0.00 0.00 99 0.9
20191017092133 13 222 3.2 0.0 0.00 0.00 0.00 99 0.9
20191017091229 13 236 4.8 0.0 0.00 0.00 0.00 99 0.9
20191017090233 13 225 6.4 0.0 0.00 0.00 0.00 99 0.9
20191017085233 13 233 4.8 0.0 0.00 0.00 0.00 99 0.9
20191017084234 13 225 0.0 0.0 0.00 0.00 0.00 99 0.9
20191017083234 13 270 6.4 0.0 0.00 0.00 0.00 99 0.9
20191017082333 13 227 4.8 0.0 0.00 0.00 0.00 99 0.9
20191017081334 13 264 4.8 0.0 0.00 0.00 0.00 99 0.9
20191017080431 12 268 6.4 0.0 0.00 0.00 0.00 99 0.9
20191017075530 12 257 3.2 0.0 0.00 0.00 0.00 99 0.9
20191017074531 12 266 6.4 0.0 0.00 0.03 0.00 99 0.9
20191017073535 12 261 6.4 0.0 0.00 0.03 0.00 98 0.9
20191017072634 12 247 3.2 0.0 0.00 0.03 0.00 98 0.9
20191017071731 13 250 6.4 0.0 0.00 0.03 0.00 99 0.9
20191017070735 13 243 4.8 0.0 0.00 0.03 0.00 99 0.9
20191017065831 13 225 0.0 0.0 0.00 0.03 0.00 99 0.9
20191017064832 13 214 4.8 0.0 0.00 0.03 0.00 99 0.9
20191017063833 13 226 6.4 0.0 0.00 0.03 0.00 99 0.9
20191017061932 13 203 4.8 0.0 0.00 0.03 0.00 97 0.9
20191017061030 13 208 6.4 0.0 0.00 0.03 0.00 99 0.9
20191017060129 13 212 6.4 0.0 0.00 0.03 0.00 98 0.9
20191017055131 13 215 3.2 0.0 0.00 0.03 0.00 99 0.9
20191017054132 13 222 4.8 0.0 0.00 0.03 0.00 98 0.9
20191017053232 13 207 6.4 0.0 0.00 0.03 0.00 99 0.9
20191017052234 13 210 1.6 0.0 0.00 0.03 0.00 99 0.9
20191017051231 13 239 1.6 0.0 0.00 0.03 0.00 99 0.9
20191017050329 13 201 6.4 0.0 0.00 0.03 0.00 99 0.9
20191017045330 13 213 3.2 0.0 0.00 0.03 0.00 99 0.9
20191017044431 13 215 6.4 0.0 0.00 0.03 0.00 99 0.9
20191017043431 13 209 6.4 0.0 0.00 0.03 0.00 99 0.9
20191017042430 13 213 11.3 0.0 0.00 0.03 0.00 99 0.9
20191017041432 13 197 4.8 0.0 0.00 0.03 0.00 99 0.9
20191017040432 13 218 8.0 0.0 0.00 0.03 0.00 99 0.9
20191017035435 13 204 9.7 0.0 0.00 0.03 0.00 99 0.9